Weather in Nerl

Russia / Tver Oblast     57°02′38″N   37°59′20″E
temp.,
°C
wind,
m/s
gust,
m/s
humid.,
%
clouds,
%
prec.,
mm/h
press.,
hPa
HPBL,
m
18 may, tue
tue1800:00+16ese41095100 0.0 1011183
03:00+15ese411935 0.0 1010198
06:00+16se413866 0.0 1010282
09:00+21se512670 0.0 1010460
12:00+25se61252100 0.0 1010852
15:00+27ese6115158 0.0 10091691
18:00+24ese612602 0.0 1008447
21:00+18ese5157612 0.0 1008313
19 may, wed
wed1900:00+18ese515725 0.0 1008328
03:00+16ese515780 0.0 1008330
06:00+17ese614774 0.0 1008416
09:00+21se7146639 0.0 10081029
12:00+24sse7125699 0.0 10091485
15:00+25se61156100 0.0 10082255
18:00+24se59623 0.1 1007610
21:00+17ssw228767 0.8 100825
20 may, thu
thu2000:00+16ese229321 1.8 100823
03:00+15ese41097100 2.7 1007259
06:00+16ese5995100 2.6 1007325
09:00+19se61085100 2.7 1006756
12:00+20sse8125777 0.3 10061948
15:00+20sse7126398 0.6 10051976
18:00+17sse71275100 0.6 10051225
21:00+14sse6128156 0.6 1006849
21 may, fri
fri2100:00+12s5108647 0.1 1006568
03:00+11s498876 0.1 1007492
06:00+12s3686100 0.0 1008464
09:00+12wsw2392100 0.1 1010446
12:00+11wnw4693100 1.9 1012488
15:00+12w3688100 1.9 1013388
18:00+16nw25657 0.1 1013958
21:00+12s237899 0.1 101435
22 may, sat
sat2200:00+10w228474 0.0 101619
03:00+8wsw2280100 0.0 101712
06:00+11wnw117772 0.0 101862
09:00+15nnw11574 0.0 1019538
12:00+18sse134822 0.0 10191918
15:00+20ssw34425 0.0 10182246
18:00+19s3558100 0.0 1018432
21:00+14s377257 0.0 1018144